Location: Unspecified
(41.1850°N, 73.2650°W)
Time: 03:17:41
(UTC+00:00)

SL-08 R/B - Pass Details

Date: 19 March 2026
Orbit: 946 x 992 km, 83.0° (Epoch: 13 April)

Event Time Altitude Azimuth Distance (km) Brightness Sun altitude
Exits shadow 00:23:56 18° 135° (SE) 2,139 5.8 -15.9°
Maximum altitude 00:27:24 31° 87° (E) 1,604 5.1 -16.5°
Drops below altitude 10° 00:32:37 10° 28° (NNE) 2,674 6.7 -17.5°
Sets 00:35:23 0° 18° (NNE) 3,624 7.5 -18.0°
